Time,TemperatureF,DewpointF,PressureIn,WindDirection,WindDirectionDegrees,WindSpeedMPH,WindSpeedGustMPH,Humidity,HourlyPrecipIn,Conditions,Clouds,dailyrainin,SoftwareType,DateUTC
2013-09-12 00:01:00,77.6,73.8,29.98,SE,124,0.0,0.0,88,0.00,RA,OVC,0.00,WeatherDisplay:10.37,2013-09-12 04:01:00,
2013-09-12 00:02:00,77.6,73.8,29.98,SE,125,0.0,0.0,88,0.00,RA,OVC,0.00,WeatherDisplay:10.37,2013-09-12 04:02:00,
2013-09-12 00:07:00,77.4,73.9,29.98,SE,124,0.0,0.0,89,0.00,RA,OVC,0.00,WeatherDisplay:10.37,2013-09-12 04:07:00,
2013-09-12 00:12:00,77.4,73.6,29.98,NE,54,0.0,0.0,88,0.00,,OVC,0.00,WeatherDisplay:10.37,2013-09-12 04:12:00,
2013-09-12 00:17:00,77.6,73.8,29.98,ENE,57,0.0,0.0,88,0.00,,OVC,0.00,WeatherDisplay:10.37,2013-09-12 04:17:00,
2013-09-12 00:22:00,77.6,73.8,29.98,ENE,57,0.0,0.0,88,0.00,,OVC,0.00,WeatherDisplay:10.37,2013-09-12 04:22:00,
2013-09-12 00:27:00,77.6,73.4,29.98,ENE,57,0.0,0.0,87,0.00,,OVC,0.00,WeatherDisplay:10.37,2013-09-12 04:27:00,
2013-09-12 00:32:00,77.7,73.9,29.98,ENE,57,0.0,0.0,88,0.00,,OVC,0.00,WeatherDisplay:10.37,2013-09-12 04:32:00,
2013-09-12 00:37:00,77.7,73.5,29.98,ENE,57,0.0,0.0,87,0.00,,OVC,0.00,WeatherDisplay:10.37,2013-09-12 04:37:00,
2013-09-12 00:42:00,77.7,73.5,29.98,ENE,57,0.0,0.0,87,0.00,,OVC,0.00,WeatherDisplay:10.37,2013-09-12 04:42:00,
2013-09-12 00:47:00,77.7,73.5,29.97,ENE,57,0.0,0.0,87,0.00,,OVC,0.00,WeatherDisplay:10.37,2013-09-12 04:47:00,
2013-09-12 00:52:00,77.7,73.9,29.97,NE,56,0.0,0.0,88,0.00,,OVC,0.00,WeatherDisplay:10.37,2013-09-12 04:52:00,
2013-09-12 00:57:00,77.6,73.8,29.97,NE,56,0.0,0.0,88,0.00,,OVC,0.00,WeatherDisplay:10.37,2013-09-12 04:57:00,
2013-09-12 01:02:00,77.6,73.8,29.96,NE,56,0.0,0.0,88,0.00,,OVC,0.00,WeatherDisplay:10.37,2013-09-12 05:02:00,
2013-09-12 01:07:00,77.4,73.9,29.96,NE,56,0.0,0.0,89,0.00,,OVC,0.00,WeatherDisplay:10.37,2013-09-12 05:07:00,
2013-09-12 01:12:00,77.4,73.9,29.96,NE,56,0.0,0.0,89,0.00,,OVC,0.00,WeatherDisplay:10.37,2013-09-12 05:12:00,
2013-09-12 01:17:00,77.2,73.7,29.96,ENE,57,0.0,0.0,89,0.00,,OVC,0.00,WeatherDisplay:10.37,2013-09-12 05:17:00,
2013-09-12 01:22:00,77.2,73.7,29.96,ENE,57,0.0,0.0,89,0.00,,OVC,0.00,WeatherDisplay:10.37,2013-09-12 05:22:00,
2013-09-12 01:27:00,77.2,73.7,29.96,ENE,62,0.0,0.0,89,0.00,,OVC,0.00,WeatherDisplay:10.37,2013-09-12 05:27:00,
2013-09-12 01:32:00,77.2,73.7,29.96,ENE,69,0.0,0.0,89,0.00,,OVC,0.00,WeatherDisplay:10.37,2013-09-12 05:32:00,
2013-09-12 01:37:00,77.2,73.7,29.96,ENE,69,0.0,0.0,89,0.00,,OVC,0.00,WeatherDisplay:10.37,2013-09-12 05:37:00,
2013-09-12 01:42:00,77.0,73.5,29.96,ENE,69,0.0,0.0,89,0.00,,OVC,0.00,WeatherDisplay:10.37,2013-09-12 05:42:00,
2013-09-12 01:47:00,77.0,73.5,29.95,ENE,69,0.0,0.0,89,0.00,,OVC,0.00,WeatherDisplay:10.37,2013-09-12 05:47:00,
2013-09-12 01:52:00,77.0,73.5,29.95,ENE,69,0.0,0.0,89,0.00,,OVC,0.00,WeatherDisplay:10.37,2013-09-12 05:52:00,
2013-09-12 01:57:00,76.8,73.3,29.95,ENE,69,0.0,0.0,89,0.00,,OVC,0.00,WeatherDisplay:10.37,2013-09-12 05:57:00,
2013-09-12 02:02:00,76.8,73.3,29.95,ENE,69,0.0,0.0,89,0.00,,OVC,0.00,WeatherDisplay:10.37,2013-09-12 06:02:00,
2013-09-12 02:07:00,76.8,73.3,29.95,ENE,69,0.0,0.0,89,0.00,,OVC,0.00,WeatherDisplay:10.37,2013-09-12 06:07:00,
2013-09-12 02:12:00,76.7,73.2,29.95,ENE,69,0.0,0.0,89,0.00,,OVC,0.00,WeatherDisplay:10.37,2013-09-12 06:12:00,
2013-09-12 02:17:00,76.5,73.0,29.95,ENE,69,0.0,0.0,89,0.00,,OVC,0.00,WeatherDisplay:10.37,2013-09-12 06:17:00,
2013-09-12 02:22:00,76.3,72.5,29.95,ENE,69,0.0,0.0,88,0.00,,OVC,0.00,WeatherDisplay:10.37,2013-09-12 06:22:00,
2013-09-12 02:27:00,76.3,72.5,29.95,ENE,69,0.0,0.0,88,0.00,,OVC,0.00,WeatherDisplay:10.37,2013-09-12 06:27:00,
2013-09-12 02:32:00,76.5,72.7,29.95,ENE,69,0.0,0.0,88,0.00,,OVC,0.00,WeatherDisplay:10.37,2013-09-12 06:32:00,
2013-09-12 02:37:00,76.3,72.5,29.95,ENE,69,0.0,0.0,88,0.00,,OVC,0.00,WeatherDisplay:10.37,2013-09-12 06:37:00,
2013-09-12 02:42:00,76.3,72.5,29.95,ENE,69,0.0,0.0,88,0.00,,OVC,0.00,WeatherDisplay:10.37,2013-09-12 06:42:00,
2013-09-12 02:47:00,76.3,72.5,29.94,ENE,69,0.0,0.0,88,0.00,,OVC,0.00,WeatherDisplay:10.37,2013-09-12 06:47:00,
2013-09-12 02:52:00,76.3,72.5,29.94,ENE,69,0.0,0.0,88,0.00,,OVC,0.00,WeatherDisplay:10.37,2013-09-12 06:52:00,
2013-09-12 02:57:00,76.3,72.5,29.94,ENE,69,0.0,0.0,88,0.00,,OVC,0.00,WeatherDisplay:10.37,2013-09-12 06:57:00,
2013-09-12 03:02:00,76.5,72.7,29.93,ENE,69,0.0,0.0,88,0.00,,OVC,0.00,WeatherDisplay:10.37,2013-09-12 07:02:00,
2013-09-12 03:07:00,76.3,72.5,29.93,ENE,69,0.0,0.0,88,0.00,,OVC,0.00,WeatherDisplay:10.37,2013-09-12 07:07:00,
2013-09-12 03:12:00,76.3,72.5,29.93,ENE,69,0.0,0.0,88,0.00,,OVC,0.00,WeatherDisplay:10.37,2013-09-12 07:12:00,
2013-09-12 03:18:00,76.3,72.8,29.93,ENE,69,0.0,0.0,89,0.00,,OVC,0.00,WeatherDisplay:10.37,2013-09-12 07:18:00,
2013-09-12 03:22:00,76.3,72.8,29.93,ENE,69,0.0,0.0,89,0.00,,OVC,0.00,WeatherDisplay:10.37,2013-09-12 07:22:00,
2013-09-12 03:28:00,76.1,72.6,29.93,ENE,69,0.0,0.0,89,0.00,,OVC,0.00,WeatherDisplay:10.37,2013-09-12 07:28:00,
2013-09-12 03:33:00,76.0,72.5,29.93,ENE,69,0.0,0.0,89,0.00,,OVC,0.00,WeatherDisplay:10.37,2013-09-12 07:33:00,
2013-09-12 03:38:00,76.0,72.5,29.93,ENE,69,0.0,0.0,89,0.00,,OVC,0.00,WeatherDisplay:10.37,2013-09-12 07:38:00,
2013-09-12 03:43:00,76.0,72.5,29.93,ENE,69,0.0,0.0,89,0.00,,OVC,0.00,WeatherDisplay:10.37,2013-09-12 07:43:00,
2013-09-12 03:48:00,76.0,72.5,29.92,ENE,69,0.0,0.0,89,0.00,,OVC,0.00,WeatherDisplay:10.37,2013-09-12 07:48:00,
2013-09-12 03:53:00,75.8,72.3,29.92,ENE,69,0.0,0.0,89,0.00,,OVC,0.00,WeatherDisplay:10.37,2013-09-12 07:53:00,
2013-09-12 03:58:00,75.8,72.3,29.92,ENE,69,0.0,0.0,89,0.00,,OVC,0.00,WeatherDisplay:10.37,2013-09-12 07:58:00,
2013-09-12 04:03:00,76.0,72.9,29.92,ENE,69,0.0,0.0,90,0.00,,OVC,0.00,WeatherDisplay:10.37,2013-09-12 08:03:00,
2013-09-12 04:08:00,76.0,72.9,29.92,ENE,69,0.0,0.0,90,0.00,,OVC,0.00,WeatherDisplay:10.37,2013-09-12 08:08:00,
2013-09-12 04:13:00,76.0,72.9,29.92,ENE,69,0.0,0.0,90,0.00,,OVC,0.00,WeatherDisplay:10.37,2013-09-12 08:13:00,
2013-09-12 04:18:00,75.8,72.7,29.92,ENE,69,0.0,0.0,90,0.00,,OVC,0.00,WeatherDisplay:10.37,2013-09-12 08:18:00,
2013-09-12 04:23:00,75.8,72.7,29.92,ENE,69,0.0,0.0,90,0.00,,OVC,0.00,WeatherDisplay:10.37,2013-09-12 08:23:00,
2013-09-12 04:28:00,75.8,72.7,29.92,ENE,69,0.0,0.0,90,0.00,,OVC,0.00,WeatherDisplay:10.37,2013-09-12 08:28:00,
2013-09-12 04:33:00,75.6,72.8,29.92,ENE,69,0.0,0.0,91,0.00,,OVC,0.00,WeatherDisplay:10.37,2013-09-12 08:33:00,
2013-09-12 04:38:00,75.6,72.8,29.92,ENE,69,0.0,0.0,91,0.00,,OVC,0.00,WeatherDisplay:10.37,2013-09-12 08:38:00,
2013-09-12 04:43:00,75.6,72.8,29.92,ENE,69,0.0,0.0,91,0.00,,OVC,0.00,WeatherDisplay:10.37,2013-09-12 08:43:00,
2013-09-12 04:48:00,75.6,72.8,29.92,ENE,69,0.0,0.0,91,0.00,,OVC,0.00,WeatherDisplay:10.37,2013-09-12 08:48:00,
2013-09-12 04:53:00,75.6,72.8,29.92,ENE,69,0.0,0.0,91,0.00,,OVC,0.00,WeatherDisplay:10.37,2013-09-12 08:53:00,
2013-09-12 04:58:00,75.6,72.8,29.92,ENE,69,0.0,0.0,91,0.00,,OVC,0.00,WeatherDisplay:10.37,2013-09-12 08:58:00,
2013-09-12 05:03:00,75.4,72.6,29.92,ENE,69,0.0,0.0,91,0.00,,OVC,0.00,WeatherDisplay:10.37,2013-09-12 09:03:00,
2013-09-12 05:08:00,75.4,72.9,29.92,ENE,69,0.0,0.0,92,0.00,,OVC,0.00,WeatherDisplay:10.37,2013-09-12 09:08:00,
2013-09-12 05:13:00,75.4,72.9,29.92,ENE,69,0.0,0.0,92,0.00,,OVC,0.00,WeatherDisplay:10.37,2013-09-12 09:13:00,
2013-09-12 05:18:00,75.3,72.8,29.93,ENE,69,0.0,0.0,92,0.00,,OVC,0.00,WeatherDisplay:10.37,2013-09-12 09:18:00,
2013-09-12 05:23:00,75.4,72.9,29.93,ENE,69,0.0,0.0,92,0.00,,OVC,0.00,WeatherDisplay:10.37,2013-09-12 09:23:00,
2013-09-12 05:28:00,75.4,72.9,29.93,ENE,69,0.0,0.0,92,0.00,,OVC,0.00,WeatherDisplay:10.37,2013-09-12 09:28:00,
2013-09-12 05:33:00,75.6,73.1,29.93,ENE,69,0.0,0.0,92,0.00,,OVC,0.00,WeatherDisplay:10.37,2013-09-12 09:33:00,
2013-09-12 05:38:00,75.6,73.1,29.93,ENE,69,0.0,0.0,92,0.00,,OVC,0.00,WeatherDisplay:10.37,2013-09-12 09:38:00,
2013-09-12 05:43:00,75.6,73.1,29.93,ENE,69,0.0,0.0,92,0.00,,OVC,0.00,WeatherDisplay:10.37,2013-09-12 09:43:00,
2013-09-12 05:48:00,75.8,73.6,29.93,ENE,69,0.0,0.0,93,0.00,,OVC,0.00,WeatherDisplay:10.37,2013-09-12 09:48:00,
2013-09-12 05:53:00,75.8,73.6,29.93,ENE,69,0.0,0.0,93,0.00,,OVC,0.00,WeatherDisplay:10.37,2013-09-12 09:53:00,
2013-09-12 05:58:00,75.8,73.6,29.93,ENE,69,0.0,0.0,93,0.00,,OVC,0.00,WeatherDisplay:10.37,2013-09-12 09:58:00,
2013-09-12 06:03:00,75.8,73.6,29.94,ENE,69,0.0,0.0,93,0.00,,OVC,0.00,WeatherDisplay:10.37,2013-09-12 10:03:00,
2013-09-12 06:08:00,75.6,73.4,29.94,ENE,69,0.0,0.0,93,0.00,,OVC,0.00,WeatherDisplay:10.37,2013-09-12 10:08:00,
2013-09-12 06:13:00,75.6,73.4,29.94,ENE,69,0.0,0.0,93,0.00,,OVC,0.00,WeatherDisplay:10.37,2013-09-12 10:13:00,
2013-09-12 06:18:00,75.6,73.4,29.95,ENE,69,0.0,0.0,93,0.00,,OVC,0.00,WeatherDisplay:10.37,2013-09-12 10:18:00,
2013-09-12 06:23:00,75.6,73.4,29.95,ENE,69,0.0,0.0,93,0.00,,OVC,0.00,WeatherDisplay:10.37,2013-09-12 10:23:00,
2013-09-12 06:28:00,75.6,73.4,29.95,ENE,69,0.0,0.0,93,0.00,,OVC,0.00,WeatherDisplay:10.37,2013-09-12 10:28:00,
2013-09-12 06:33:00,75.8,73.6,29.95,ENE,69,0.0,0.0,93,0.00,,OVC,0.00,WeatherDisplay:10.37,2013-09-12 10:33:00,
2013-09-12 06:38:00,75.8,73.6,29.95,ENE,69,0.0,0.0,93,0.00,,OVC,0.00,WeatherDisplay:10.37,2013-09-12 10:38:00,
2013-09-12 06:43:00,75.8,73.6,29.95,ENE,69,0.0,0.0,93,0.00,,OVC,0.00,WeatherDisplay:10.37,2013-09-12 10:43:00,
2013-09-12 06:48:00,76.0,74.1,29.95,ENE,69,0.0,0.0,94,0.00,,OVC,0.00,WeatherDisplay:10.37,2013-09-12 10:48:00,
2013-09-12 06:53:00,76.0,74.1,29.95,ENE,69,0.0,0.0,94,0.00,,OVC,0.00,WeatherDisplay:10.37,2013-09-12 10:53:00,
2013-09-12 06:58:00,76.0,73.8,29.95,ENE,69,0.0,0.0,93,0.00,,OVC,0.00,WeatherDisplay:10.37,2013-09-12 10:58:00,
2013-09-12 07:03:00,76.0,73.8,29.94,ENE,69,0.0,0.0,93,0.00,,OVC,0.00,WeatherDisplay:10.37,2013-09-12 11:03:00,
2013-09-12 07:08:00,76.0,73.8,29.94,ENE,69,0.0,0.0,93,0.00,,OVC,0.00,WeatherDisplay:10.37,2013-09-12 11:08:00,
2013-09-12 07:13:00,76.0,73.8,29.94,ENE,69,0.0,0.0,93,0.00,,OVC,0.00,WeatherDisplay:10.37,2013-09-12 11:13:00,
2013-09-12 07:18:00,76.0,73.8,29.94,ENE,69,0.0,0.0,93,0.00,,OVC,0.00,WeatherDisplay:10.37,2013-09-12 11:18:00,
2013-09-12 07:23:00,76.0,73.8,29.94,ENE,69,0.0,0.0,93,0.00,,OVC,0.00,WeatherDisplay:10.37,2013-09-12 11:23:00,
2013-09-12 07:28:00,76.0,74.1,29.94,ENE,69,0.0,0.0,94,0.00,,OVC,0.00,WeatherDisplay:10.37,2013-09-12 11:28:00,
2013-09-12 07:33:00,76.0,74.1,29.94,ENE,69,0.0,0.0,94,0.00,,OVC,0.00,WeatherDisplay:10.37,2013-09-12 11:33:00,
2013-09-12 07:38:00,76.1,74.2,29.94,ENE,69,0.0,0.0,94,0.00,,OVC,0.00,WeatherDisplay:10.37,2013-09-12 11:38:00,
2013-09-12 07:43:00,76.1,74.2,29.94,ENE,69,0.0,0.0,94,0.00,,OVC,0.00,WeatherDisplay:10.37,2013-09-12 11:43:00,
2013-09-12 07:48:00,76.3,74.4,29.94,ENE,69,0.0,0.0,94,0.00,,OVC,0.00,WeatherDisplay:10.37,2013-09-12 11:48:00,
2013-09-12 07:53:00,76.5,74.6,29.94,ENE,69,0.0,0.0,94,0.00,,OVC,0.00,WeatherDisplay:10.37,2013-09-12 11:53:00,
2013-09-12 07:58:00,76.7,74.8,29.94,ENE,69,0.0,0.0,94,0.00,,OVC,0.00,WeatherDisplay:10.37,2013-09-12 11:58:00,
2013-09-12 08:03:00,76.7,74.8,29.95,ENE,69,0.0,0.0,94,0.00,,OVC,0.00,WeatherDisplay:10.37,2013-09-12 12:03:00,
2013-09-12 08:08:00,76.8,74.9,29.95,ENE,69,0.0,0.0,94,0.00,,OVC,0.00,WeatherDisplay:10.37,2013-09-12 12:08:00,
2013-09-12 08:13:00,77.0,75.1,29.95,ENE,69,0.0,0.0,94,0.00,,OVC,0.00,WeatherDisplay:10.37,2013-09-12 12:13:00,
2013-09-12 08:18:00,77.0,75.1,29.95,ENE,69,0.0,0.0,94,0.00,,OVC,0.00,WeatherDisplay:10.37,2013-09-12 12:18:00,
2013-09-12 08:23:00,77.2,75.3,29.95,ENE,69,0.0,0.0,94,0.00,,OVC,0.00,WeatherDisplay:10.37,2013-09-12 12:23:00,
2013-09-12 08:28:00,77.4,75.5,29.95,ENE,69,0.0,0.0,94,0.00,,OVC,0.00,WeatherDisplay:10.37,2013-09-12 12:28:00,
2013-09-12 08:33:00,77.4,75.5,29.96,ENE,69,0.0,0.0,94,0.00,,OVC,0.00,WeatherDisplay:10.37,2013-09-12 12:33:00,
2013-09-12 08:38:00,77.6,75.7,29.96,ENE,69,0.0,0.0,94,0.00,,OVC,0.00,WeatherDisplay:10.37,2013-09-12 12:38:00,
2013-09-12 08:43:00,77.7,75.5,29.96,ENE,69,0.0,0.0,93,0.00,,OVC,0.00,WeatherDisplay:10.37,2013-09-12 12:43:00,
2013-09-12 08:48:00,77.9,76.0,29.96,ENE,69,0.0,0.0,94,0.00,,OVC,0.00,WeatherDisplay:10.37,2013-09-12 12:48:00,
2013-09-12 08:53:00,77.9,75.7,29.96,ENE,69,0.0,0.0,93,0.00,,OVC,0.00,WeatherDisplay:10.37,2013-09-12 12:53:00,
2013-09-12 08:58:00,78.1,75.9,29.96,ENE,69,0.0,0.0,93,0.00,,OVC,0.00,WeatherDisplay:10.37,2013-09-12 12:58:00,
2013-09-12 09:04:00,78.3,76.1,29.97,ENE,69,0.0,0.0,93,0.00,,OVC,0.00,WeatherDisplay:10.37,2013-09-12 13:04:00,
2013-09-12 09:09:00,78.5,76.3,29.97,ENE,69,0.0,0.0,93,0.00,,OVC,0.00,WeatherDisplay:10.37,2013-09-12 13:09:00,
2013-09-12 09:14:00,78.8,76.6,29.97,ENE,69,0.0,0.0,93,0.00,,OVC,0.00,WeatherDisplay:10.37,2013-09-12 13:14:00,
2013-09-12 09:19:00,79.0,76.5,29.97,ENE,69,0.0,0.0,92,0.00,,OVC,0.00,WeatherDisplay:10.37,2013-09-12 13:19:00,
2013-09-12 09:24:00,79.0,76.5,29.97,ENE,70,0.0,0.0,92,0.00,,OVC,0.00,WeatherDisplay:10.37,2013-09-12 13:24:00,
2013-09-12 09:29:00,79.4,76.9,29.97,ENE,70,0.0,0.0,92,0.00,,OVC,0.00,WeatherDisplay:10.37,2013-09-12 13:29:00,
2013-09-12 09:34:00,79.6,76.7,29.97,ENE,70,0.0,0.0,91,0.00,,OVC,0.00,WeatherDisplay:10.37,2013-09-12 13:34:00,
2013-09-12 09:39:00,79.8,76.6,29.97,East,84,0.0,0.0,90,0.00,,OVC,0.00,WeatherDisplay:10.37,2013-09-12 13:39:00,
2013-09-12 09:44:00,79.9,76.4,29.97,East,93,0.0,0.0,89,0.00,,OVC,0.00,WeatherDisplay:10.37,2013-09-12 13:44:00,
2013-09-12 09:49:00,80.1,75.9,29.96,East,93,0.0,0.0,87,0.00,,OVC,0.00,WeatherDisplay:10.37,2013-09-12 13:49:00,
2013-09-12 09:54:00,80.3,75.7,29.96,East,94,0.0,0.0,86,0.00,,OVC,0.00,WeatherDisplay:10.37,2013-09-12 13:54:00,
2013-09-12 09:59:00,80.7,75.8,29.96,East,99,0.0,0.0,85,0.00,,OVC,0.00,WeatherDisplay:10.37,2013-09-12 13:59:00,
2013-09-12 10:04:00,80.9,76.0,29.97,East,99,0.0,0.0,85,0.00,,OVC,0.00,WeatherDisplay:10.37,2013-09-12 14:04:00,
2013-09-12 10:09:00,80.9,76.0,29.97,East,99,0.0,0.0,85,0.00,,OVC,0.00,WeatherDisplay:10.37,2013-09-12 14:09:00,
2013-09-12 10:14:00,81.1,76.2,29.97,East,99,0.0,0.0,85,0.00,,OVC,0.00,WeatherDisplay:10.37,2013-09-12 14:14:00,
2013-09-12 10:19:00,81.2,75.9,29.97,East,99,0.0,0.0,84,0.00,,OVC,0.00,WeatherDisplay:10.37,2013-09-12 14:19:00,
2013-09-12 10:24:00,81.2,75.9,29.97,ESE,103,0.0,0.0,84,0.00,,OVC,0.00,WeatherDisplay:10.37,2013-09-12 14:24:00,
2013-09-12 10:29:00,81.4,76.1,29.97,ESE,103,0.0,0.0,84,0.00,,OVC,0.00,WeatherDisplay:10.37,2013-09-12 14:29:00,
2013-09-12 10:34:00,81.6,76.3,29.97,ESE,103,0.0,0.0,84,0.00,,OVC,0.00,WeatherDisplay:10.37,2013-09-12 14:34:00,
2013-09-12 10:39:00,81.8,76.5,29.97,East,96,0.0,0.0,84,0.00,,OVC,0.00,WeatherDisplay:10.37,2013-09-12 14:39:00,
2013-09-12 10:44:00,81.8,76.1,29.97,ENE,76,0.0,0.0,83,0.00,,OVC,0.00,WeatherDisplay:10.37,2013-09-12 14:44:00,
2013-09-12 10:49:00,82.0,76.3,29.97,ENE,76,0.0,0.0,83,0.00,,OVC,0.00,WeatherDisplay:10.37,2013-09-12 14:49:00,
2013-09-12 10:54:00,82.2,76.5,29.97,ENE,76,0.0,0.0,83,0.00,,OVC,0.00,WeatherDisplay:10.37,2013-09-12 14:54:00,
2013-09-12 10:59:00,82.2,76.2,29.96,ENE,76,0.0,0.0,82,0.00,,OVC,0.00,WeatherDisplay:10.37,2013-09-12 14:59:00,
2013-09-12 11:04:00,82.4,76.3,29.96,ENE,76,0.0,0.0,82,0.00,,OVC,0.00,WeatherDisplay:10.37,2013-09-12 15:04:00,
2013-09-12 11:09:00,82.4,76.7,29.96,ESE,119,0.0,0.0,83,0.00,,OVC,0.00,WeatherDisplay:10.37,2013-09-12 15:09:00,
2013-09-12 11:14:00,82.2,76.5,29.96,SSE,150,0.0,0.0,83,0.00,,OVC,0.00,WeatherDisplay:10.37,2013-09-12 15:14:00,
2013-09-12 11:19:00,82.0,75.6,29.96,SE,142,8.1,8.1,81,0.00,,OVC,0.00,WeatherDisplay:10.37,2013-09-12 15:19:00,
2013-09-12 11:24:00,81.4,72.3,29.96,SE,138,0.0,0.0,74,0.00,,OVC,0.00,WeatherDisplay:10.37,2013-09-12 15:24:00,
2013-09-12 11:29:00,81.4,71.9,29.96,SE,144,0.0,0.0,73,0.00,,OVC,0.00,WeatherDisplay:10.37,2013-09-12 15:29:00,
2013-09-12 11:34:00,81.6,72.5,29.96,SE,142,0.0,0.0,74,0.00,,OVC,0.00,WeatherDisplay:10.37,2013-09-12 15:34:00,
2013-09-12 11:39:00,81.8,73.1,29.96,SE,142,0.0,0.0,75,0.00,,OVC,0.00,WeatherDisplay:10.37,2013-09-12 15:39:00,
2013-09-12 11:44:00,82.2,73.9,29.96,SE,142,0.0,0.0,76,0.00,,OVC,0.00,WeatherDisplay:10.37,2013-09-12 15:44:00,
2013-09-12 11:49:00,82.4,74.1,29.96,SE,142,0.0,0.0,76,0.00,,OVC,0.00,WeatherDisplay:10.37,2013-09-12 15:49:00,
2013-09-12 11:54:00,82.6,75.0,29.96,SE,142,0.0,0.0,78,0.00,,OVC,0.00,WeatherDisplay:10.37,2013-09-12 15:54:00,
2013-09-12 11:59:00,82.6,75.0,29.96,SE,138,2.3,2.3,78,0.00,,OVC,0.00,WeatherDisplay:10.37,2013-09-12 15:59:00,
2013-09-12 12:04:00,82.6,75.0,29.96,SSE,149,0.0,0.0,78,0.00,,OVC,0.00,WeatherDisplay:10.37,2013-09-12 16:04:00,
2013-09-12 12:09:00,82.6,75.0,29.96,SSE,149,1.2,1.2,78,0.00,,OVC,0.00,WeatherDisplay:10.37,2013-09-12 16:09:00,
2013-09-12 12:14:00,82.6,75.4,29.96,SE,126,4.6,4.6,79,0.00,,OVC,0.00,WeatherDisplay:10.37,2013-09-12 16:14:00,
2013-09-12 12:19:00,82.6,75.4,29.96,SSE,149,0.0,0.0,79,0.00,,OVC,0.00,WeatherDisplay:10.37,2013-09-12 16:19:00,
2013-09-12 12:24:00,82.6,75.4,29.96,SE,146,0.0,0.0,79,0.00,,OVC,0.00,WeatherDisplay:10.37,2013-09-12 16:24:00,
2013-09-12 12:29:00,82.6,75.0,29.96,SE,146,0.0,0.0,78,0.00,,OVC,0.00,WeatherDisplay:10.37,2013-09-12 16:29:00,
2013-09-12 12:34:00,83.0,75.8,29.96,SE,146,0.0,0.0,79,0.00,,OVC,0.00,WeatherDisplay:10.37,2013-09-12 16:34:00,
2013-09-12 12:39:00,83.2,75.6,29.96,ENE,71,0.0,0.0,78,0.00,,OVC,0.00,WeatherDisplay:10.37,2013-09-12 16:39:00,
2013-09-12 12:44:00,83.2,75.6,29.95,ESE,111,0.0,0.0,78,0.00,,OVC,0.00,WeatherDisplay:10.37,2013-09-12 16:44:00,
2013-09-12 12:49:00,83.4,75.8,29.95,ESE,111,0.0,0.0,78,0.00,,OVC,0.00,WeatherDisplay:10.37,2013-09-12 16:49:00,
2013-09-12 12:54:00,83.4,75.8,29.95,ENE,62,0.0,0.0,78,0.00,,OVC,0.00,WeatherDisplay:10.37,2013-09-12 16:54:00,
2013-09-12 12:59:00,83.4,75.4,29.95,ENE,62,0.0,0.0,77,0.00,,OVC,0.00,WeatherDisplay:10.37,2013-09-12 16:59:00,
2013-09-12 13:04:00,83.6,75.6,29.95,ENE,62,0.0,0.0,77,0.00,,OVC,0.00,WeatherDisplay:10.37,2013-09-12 17:04:00,
2013-09-12 13:09:00,84.0,76.0,29.95,ENE,63,0.0,0.0,77,0.00,,OVC,0.00,WeatherDisplay:10.37,2013-09-12 17:09:00,
2013-09-12 13:14:00,84.0,75.2,29.94,ENE,63,0.0,0.0,75,0.00,,OVC,0.00,WeatherDisplay:10.37,2013-09-12 17:14:00,
2013-09-12 13:19:00,84.0,74.4,29.94,ESE,110,0.0,0.0,73,0.00,,OVC,0.00,WeatherDisplay:10.37,2013-09-12 17:19:00,
2013-09-12 13:24:00,84.0,74.0,29.94,ESE,110,0.0,0.0,72,0.00,,OVC,0.00,WeatherDisplay:10.37,2013-09-12 17:24:00,
2013-09-12 13:29:00,84.1,74.5,29.93,SE,134,0.0,0.0,73,0.00,,OVC,0.00,WeatherDisplay:10.37,2013-09-12 17:29:00,
2013-09-12 13:34:00,84.0,75.2,29.93,SE,138,3.5,3.5,75,0.00,,OVC,0.00,WeatherDisplay:10.37,2013-09-12 17:34:00,
2013-09-12 13:39:00,83.8,74.6,29.93,SE,137,0.0,0.0,74,0.00,,OVC,0.00,WeatherDisplay:10.37,2013-09-12 17:39:00,
2013-09-12 13:44:00,83.6,74.4,29.94,SE,128,3.5,3.5,74,0.00,,OVC,0.00,WeatherDisplay:10.37,2013-09-12 17:44:00,
2013-09-12 13:49:00,83.4,74.2,29.94,SE,134,0.0,0.0,74,0.00,,OVC,0.00,WeatherDisplay:10.37,2013-09-12 17:49:00,
2013-09-12 13:54:00,83.2,74.0,29.94,SE,134,3.5,3.5,74,0.00,,OVC,0.00,WeatherDisplay:10.37,2013-09-12 17:54:00,
2013-09-12 13:59:00,83.0,73.9,29.93,SE,136,0.0,0.0,74,0.00,,OVC,0.00,WeatherDisplay:10.37,2013-09-12 17:59:00,
2013-09-12 14:04:00,83.0,74.3,29.93,SE,131,2.3,0.0,75,0.00,,OVC,0.00,WeatherDisplay:10.37,2013-09-12 18:04:00,
2013-09-12 14:09:00,82.8,74.5,29.93,SE,144,4.0,4.1,76,0.00,,OVC,0.00,WeatherDisplay:10.37,2013-09-12 18:09:00,
2013-09-12 14:14:00,82.8,74.1,29.93,SE,146,4.0,4.0,75,0.00,,OVC,0.00,WeatherDisplay:10.37,2013-09-12 18:14:00,
2013-09-12 14:19:00,82.8,74.1,29.93,SE,145,0.0,0.0,75,0.00,,OVC,0.00,WeatherDisplay:10.37,2013-09-12 18:19:00,
2013-09-12 14:24:00,82.6,73.5,29.93,SSE,153,0.0,0.0,74,0.00,,OVC,0.00,WeatherDisplay:10.37,2013-09-12 18:24:00,
2013-09-12 14:29:00,82.4,73.3,29.93,SE,145,0.0,0.0,74,0.00,,OVC,0.00,WeatherDisplay:10.37,2013-09-12 18:29:00,
2013-09-12 14:34:00,82.2,73.1,29.93,SE,144,0.0,0.0,74,0.00,,OVC,0.00,WeatherDisplay:10.37,2013-09-12 18:34:00,
2013-09-12 14:39:00,82.2,73.1,29.93,SE,144,0.0,0.0,74,0.00,,OVC,0.00,WeatherDisplay:10.37,2013-09-12 18:39:00,
2013-09-12 14:44:00,82.0,72.9,29.92,SE,144,3.5,3.5,74,0.00,,OVC,0.00,WeatherDisplay:10.37,2013-09-12 18:44:00,
2013-09-12 14:49:00,82.2,73.1,29.92,SE,142,0.0,0.0,74,0.00,,OVC,0.00,WeatherDisplay:10.37,2013-09-12 18:49:00,
2013-09-12 14:54:00,82.2,73.5,29.92,SE,142,0.0,0.0,75,0.00,,OVC,0.00,WeatherDisplay:10.37,2013-09-12 18:54:00,
2013-09-12 14:59:00,82.4,73.7,29.91,SE,128,1.2,0.0,75,0.00,,OVC,0.00,WeatherDisplay:10.37,2013-09-12 18:59:00,
2013-09-12 15:04:00,82.6,73.5,29.91,ENE,59,0.0,0.0,74,0.00,,OVC,0.00,WeatherDisplay:10.37,2013-09-12 19:04:00,
2013-09-12 15:09:00,82.6,73.5,29.91,ENE,62,0.0,0.0,74,0.00,,OVC,0.00,WeatherDisplay:10.37,2013-09-12 19:09:00,
2013-09-12 15:15:00,82.8,73.7,29.90,ENE,67,0.0,0.0,74,0.00,,OVC,0.00,WeatherDisplay:10.37,2013-09-12 19:15:00,
2013-09-12 15:20:00,83.0,73.9,29.90,ENE,67,0.0,0.0,74,0.00,,OVC,0.00,WeatherDisplay:10.37,2013-09-12 19:20:00,
2013-09-12 15:25:00,83.2,73.6,29.90,ENE,72,0.0,0.0,73,0.00,,OVC,0.00,WeatherDisplay:10.37,2013-09-12 19:25:00,
2013-09-12 15:30:00,83.4,73.8,29.90,ENE,73,0.0,0.0,73,0.00,,OVC,0.00,WeatherDisplay:10.37,2013-09-12 19:30:00,
2013-09-12 15:35:00,83.6,74.4,29.90,NE,55,0.0,0.0,74,0.00,,OVC,0.00,WeatherDisplay:10.37,2013-09-12 19:35:00,
2013-09-12 15:40:00,83.8,74.2,29.90,ENE,61,0.0,0.0,73,0.00,,OVC,0.00,WeatherDisplay:10.37,2013-09-12 19:40:00,
2013-09-12 15:45:00,83.8,73.4,29.89,ESE,115,0.0,0.0,71,0.00,,OVC,0.00,WeatherDisplay:10.37,2013-09-12 19:45:00,
2013-09-12 15:50:00,83.8,73.8,29.89,SE,145,6.9,0.0,72,0.00,,OVC,0.00,WeatherDisplay:10.37,2013-09-12 19:50:00,
2013-09-12 15:55:00,83.6,73.6,29.89,SE,144,6.9,6.9,72,0.00,,OVC,0.00,WeatherDisplay:10.37,2013-09-12 19:55:00,
2013-09-12 16:00:00,83.8,74.6,29.89,SE,144,0.0,0.0,74,0.00,,OVC,0.00,WeatherDisplay:10.37,2013-09-12 20:00:00,
2013-09-12 16:05:00,84.0,74.4,29.89,SE,126,0.0,0.0,73,0.00,,OVC,0.00,WeatherDisplay:10.37,2013-09-12 20:05:00,
2013-09-12 16:10:00,84.1,74.5,29.89,ENE,70,0.0,0.0,73,0.00,,OVC,0.00,WeatherDisplay:10.37,2013-09-12 20:10:00,
2013-09-12 16:15:00,84.1,74.1,29.87,SE,145,0.0,0.0,72,0.00,,OVC,0.00,WeatherDisplay:10.37,2013-09-12 20:15:00,
2013-09-12 16:20:00,84.1,74.5,29.87,NE,51,9.2,9.2,73,0.00,,OVC,0.00,WeatherDisplay:10.37,2013-09-12 20:20:00,
2013-09-12 16:25:00,84.1,74.9,29.87,East,82,0.0,0.0,74,0.00,,OVC,0.00,WeatherDisplay:10.37,2013-09-12 20:25:00,
2013-09-12 16:30:00,84.1,74.9,29.87,ENE,58,0.0,0.0,74,0.00,,OVC,0.00,WeatherDisplay:10.37,2013-09-12 20:30:00,
2013-09-12 16:35:00,84.0,74.4,29.87,SE,132,0.0,0.0,73,0.00,,OVC,0.00,WeatherDisplay:10.37,2013-09-12 20:35:00,
2013-09-12 16:40:00,84.0,74.8,29.87,ESE,121,0.0,0.0,74,0.00,,OVC,0.00,WeatherDisplay:10.37,2013-09-12 20:40:00,
2013-09-12 16:45:00,84.1,74.9,29.87,East,90,0.0,0.0,74,0.00,,OVC,0.00,WeatherDisplay:10.37,2013-09-12 20:45:00,
2013-09-12 16:50:00,84.1,74.1,29.87,ESE,109,0.0,0.0,72,0.00,,OVC,0.00,WeatherDisplay:10.37,2013-09-12 20:50:00,
2013-09-12 16:55:00,84.3,74.7,29.87,ESE,110,0.0,0.0,73,0.00,,OVC,0.00,WeatherDisplay:10.37,2013-09-12 20:55:00,
2013-09-12 17:00:00,84.3,74.7,29.87,ENE,62,0.0,0.0,73,0.00,,OVC,0.00,WeatherDisplay:10.37,2013-09-12 21:00:00,
2013-09-12 17:05:00,84.3,74.7,29.87,ENE,71,0.0,0.0,73,0.00,,OVC,0.00,WeatherDisplay:10.37,2013-09-12 21:05:00,
2013-09-12 17:10:00,84.3,75.1,29.87,ESE,115,0.0,0.0,74,0.00,,OVC,0.00,WeatherDisplay:10.37,2013-09-12 21:10:00,
2013-09-12 17:15:00,84.3,74.7,29.86,East,82,0.0,0.0,73,0.00,,OVC,0.00,WeatherDisplay:10.37,2013-09-12 21:15:00,
2013-09-12 17:20:00,84.3,74.7,29.86,East,82,0.0,0.0,73,0.00,,OVC,0.00,WeatherDisplay:10.37,2013-09-12 21:20:00,
2013-09-12 17:25:00,84.5,75.3,29.86,East,91,0.0,0.0,74,0.00,,OVC,0.00,WeatherDisplay:10.37,2013-09-12 21:25:00,
2013-09-12 17:30:00,84.3,75.1,29.86,ENE,66,5.8,5.8,74,0.00,,OVC,0.00,WeatherDisplay:10.37,2013-09-12 21:30:00,
2013-09-12 17:35:00,84.3,75.1,29.86,ENE,68,6.9,6.9,74,0.00,,OVC,0.00,WeatherDisplay:10.37,2013-09-12 21:35:00,
2013-09-12 17:40:00,84.1,74.9,29.86,NE,54,12.7,12.7,74,0.00,,OVC,0.00,WeatherDisplay:10.37,2013-09-12 21:40:00,
2013-09-12 17:45:00,83.8,75.0,29.87,ENE,67,3.5,3.5,75,0.00,,OVC,0.00,WeatherDisplay:10.37,2013-09-12 21:45:00,
2013-09-12 17:50:00,83.6,75.2,29.87,East,90,2.3,2.3,76,0.00,,OVC,0.00,WeatherDisplay:10.37,2013-09-12 21:50:00,
2013-09-12 17:55:00,83.6,75.2,29.87,ENE,69,8.1,8.1,76,0.00,,OVC,0.00,WeatherDisplay:10.37,2013-09-12 21:55:00,
2013-09-12 18:00:00,83.4,75.0,29.87,ENE,69,3.5,3.5,76,0.00,,OVC,0.00,WeatherDisplay:10.37,2013-09-12 22:00:00,
2013-09-12 18:05:00,83.6,75.2,29.87,ENE,69,0.0,0.0,76,0.00,,OVC,0.00,WeatherDisplay:10.37,2013-09-12 22:05:00,
2013-09-12 18:10:00,83.6,75.2,29.87,East,79,0.0,0.0,76,0.00,,OVC,0.00,WeatherDisplay:10.37,2013-09-12 22:10:00,
2013-09-12 18:15:00,83.4,75.0,29.87,ENE,69,1.2,1.2,76,0.00,,OVC,0.00,WeatherDisplay:10.37,2013-09-12 22:15:00,
2013-09-12 18:20:00,83.2,74.8,29.87,NE,43,0.0,0.0,76,0.00,,OVC,0.00,WeatherDisplay:10.37,2013-09-12 22:20:00,
2013-09-12 18:25:00,83.2,75.2,29.87,ENE,69,4.6,0.0,77,0.00,,OVC,0.00,WeatherDisplay:10.37,2013-09-12 22:25:00,
2013-09-12 18:30:00,83.2,75.2,29.87,ENE,71,0.0,0.6,77,0.00,,OVC,0.00,WeatherDisplay:10.37,2013-09-12 22:30:00,
2013-09-12 18:35:00,83.0,75.4,29.87,ENE,70,0.0,0.0,78,0.00,,OVC,0.00,WeatherDisplay:10.37,2013-09-12 22:35:00,
2013-09-12 18:40:00,82.8,75.2,29.87,ENE,69,6.9,6.9,78,0.00,,OVC,0.00,WeatherDisplay:10.37,2013-09-12 22:40:00,
2013-09-12 18:45:00,82.6,75.0,29.86,ENE,65,8.1,0.0,78,0.00,,OVC,0.00,WeatherDisplay:10.37,2013-09-12 22:45:00,
2013-09-12 18:50:00,82.6,75.0,29.86,ENE,69,0.0,0.0,78,0.00,,OVC,0.00,WeatherDisplay:10.37,2013-09-12 22:50:00,
2013-09-12 18:55:00,82.4,74.8,29.86,ENE,76,0.0,0.0,78,0.00,,OVC,0.00,WeatherDisplay:10.37,2013-09-12 22:55:00,
2013-09-12 19:00:00,82.4,75.2,29.87,ENE,76,0.0,0.0,79,0.00,,OVC,0.00,WeatherDisplay:10.37,2013-09-12 23:00:00,
2013-09-12 19:05:00,82.4,75.2,29.87,East,86,0.0,0.0,79,0.00,,OVC,0.00,WeatherDisplay:10.37,2013-09-12 23:05:00,
2013-09-12 19:10:00,82.4,75.2,29.87,East,86,0.0,0.0,79,0.00,,OVC,0.00,WeatherDisplay:10.37,2013-09-12 23:10:00,
2013-09-12 19:15:00,82.4,75.2,29.87,East,86,0.0,0.0,79,0.00,,OVC,0.00,WeatherDisplay:10.37,2013-09-12 23:15:00,
2013-09-12 19:20:00,82.2,75.0,29.87,East,86,0.0,0.0,79,0.00,,OVC,0.00,WeatherDisplay:10.37,2013-09-12 23:20:00,
2013-09-12 19:25:00,82.2,75.4,29.87,East,85,0.0,0.0,80,0.00,,OVC,0.00,WeatherDisplay:10.37,2013-09-12 23:25:00,
2013-09-12 19:30:00,82.2,75.4,29.88,East,85,0.0,0.0,80,0.00,,OVC,0.00,WeatherDisplay:10.37,2013-09-12 23:30:00,
2013-09-12 19:35:00,82.0,75.2,29.88,East,85,0.0,0.0,80,0.00,,OVC,0.00,WeatherDisplay:10.37,2013-09-12 23:35:00,
2013-09-12 19:40:00,81.8,75.0,29.88,East,85,0.0,0.0,80,0.00,,OVC,0.00,WeatherDisplay:10.37,2013-09-12 23:40:00,
2013-09-12 19:45:00,81.8,75.0,29.88,East,86,0.0,0.0,80,0.00,,OVC,0.00,WeatherDisplay:10.37,2013-09-12 23:45:00,
2013-09-12 19:50:00,81.6,74.8,29.88,ESE,111,0.0,0.4,80,0.00,,OVC,0.00,WeatherDisplay:10.37,2013-09-12 23:50:00,
2013-09-12 19:55:00,81.6,75.2,29.88,ESE,111,0.0,0.0,81,0.00,,OVC,0.00,WeatherDisplay:10.37,2013-09-12 23:55:00,
2013-09-12 20:00:00,81.4,75.0,29.88,ESE,111,0.0,0.0,81,0.00,,OVC,0.00,WeatherDisplay:10.37,2013-09-13 00:00:00,
2013-09-12 20:05:00,81.4,75.0,29.88,ESE,111,0.0,0.0,81,0.00,,OVC,0.00,WeatherDisplay:10.37,2013-09-13 00:05:00,
2013-09-12 20:10:00,81.4,75.0,29.88,ESE,111,0.0,0.0,81,0.00,,OVC,0.00,WeatherDisplay:10.37,2013-09-13 00:10:00,
2013-09-12 20:15:00,81.4,75.0,29.88,ESE,111,0.0,0.0,81,0.00,,OVC,0.00,WeatherDisplay:10.37,2013-09-13 00:15:00,
2013-09-12 20:20:00,81.2,75.2,29.88,ESE,111,0.0,0.0,82,0.00,,OVC,0.00,WeatherDisplay:10.37,2013-09-13 00:20:00,
2013-09-12 20:25:00,81.2,75.2,29.88,ESE,111,0.0,0.0,82,0.00,,OVC,0.00,WeatherDisplay:10.37,2013-09-13 00:25:00,
2013-09-12 20:30:00,81.2,75.5,29.88,ESE,111,0.0,0.0,83,0.00,,OVC,0.00,WeatherDisplay:10.37,2013-09-13 00:30:00,
2013-09-12 20:35:00,81.2,75.5,29.88,ESE,111,0.0,0.0,83,0.00,,OVC,0.00,WeatherDisplay:10.37,2013-09-13 00:35:00,
2013-09-12 20:40:00,81.1,75.4,29.88,ESE,111,0.0,0.0,83,0.00,,OVC,0.00,WeatherDisplay:10.37,2013-09-13 00:40:00,
2013-09-12 20:45:00,80.9,75.6,29.89,ESE,111,0.0,0.0,84,0.00,,OVC,0.00,WeatherDisplay:10.37,2013-09-13 00:45:00,
2013-09-12 20:50:00,80.7,75.4,29.89,ESE,111,0.0,0.0,84,0.00,,OVC,0.00,WeatherDisplay:10.37,2013-09-13 00:50:00,
2013-09-12 20:55:00,80.7,75.8,29.89,ESE,111,0.0,0.0,85,0.00,,OVC,0.00,WeatherDisplay:10.37,2013-09-13 00:55:00,
2013-09-12 21:01:00,80.5,75.6,29.89,ESE,111,0.0,0.0,85,0.00,,OVC,0.00,WeatherDisplay:10.37,2013-09-13 01:01:00,
2013-09-12 21:06:00,80.3,75.4,29.89,ESE,111,0.0,0.0,85,0.00,,OVC,0.00,WeatherDisplay:10.37,2013-09-13 01:06:00,
2013-09-12 21:11:00,80.1,74.8,29.89,SE,128,0.0,0.0,84,0.00,,OVC,0.00,WeatherDisplay:10.37,2013-09-13 01:11:00,
2013-09-12 21:16:00,80.1,74.1,29.89,SE,129,0.0,0.0,82,0.00,,OVC,0.00,WeatherDisplay:10.37,2013-09-13 01:16:00,
2013-09-12 21:21:00,79.9,73.9,29.89,SE,129,0.0,0.0,82,0.00,,OVC,0.00,WeatherDisplay:10.37,2013-09-13 01:21:00,
2013-09-12 21:26:00,79.8,73.1,29.89,SE,129,0.0,0.0,80,0.00,,OVC,0.00,WeatherDisplay:10.37,2013-09-13 01:26:00,
2013-09-12 21:31:00,79.8,71.9,29.89,SE,129,0.0,0.0,77,0.00,,OVC,0.00,WeatherDisplay:10.37,2013-09-13 01:31:00,
2013-09-12 21:36:00,79.8,71.9,29.89,SE,129,0.0,0.0,77,0.00,,OVC,0.00,WeatherDisplay:10.37,2013-09-13 01:36:00,
2013-09-12 21:41:00,79.9,72.0,29.89,SE,129,0.0,0.0,77,0.00,,OVC,0.00,WeatherDisplay:10.37,2013-09-13 01:41:00,
2013-09-12 21:46:00,80.1,71.8,29.90,SE,129,0.0,0.0,76,0.00,,OVC,0.00,WeatherDisplay:10.37,2013-09-13 01:46:00,
2013-09-12 21:51:00,79.9,72.0,29.90,SE,129,0.0,0.0,77,0.00,,OVC,0.00,WeatherDisplay:10.37,2013-09-13 01:51:00,
2013-09-12 21:56:00,79.8,71.9,29.90,SE,129,0.0,0.0,77,0.00,,OVC,0.00,WeatherDisplay:10.37,2013-09-13 01:56:00,
2013-09-12 22:01:00,79.6,72.1,29.90,SE,129,0.0,0.0,78,0.00,,OVC,0.00,WeatherDisplay:10.37,2013-09-13 02:01:00,
2013-09-12 22:06:00,79.6,72.1,29.90,SE,129,0.0,0.0,78,0.00,,OVC,0.00,WeatherDisplay:10.37,2013-09-13 02:06:00,
2013-09-12 22:11:00,79.4,71.9,29.90,SE,129,0.0,0.0,78,0.00,,OVC,0.00,WeatherDisplay:10.37,2013-09-13 02:11:00,
2013-09-12 22:16:00,79.4,72.3,29.89,SE,129,0.0,0.0,79,0.00,,OVC,0.00,WeatherDisplay:10.37,2013-09-13 02:16:00,
2013-09-12 22:21:00,79.2,72.5,29.89,SE,129,0.0,0.0,80,0.00,,OVC,0.00,WeatherDisplay:10.37,2013-09-13 02:21:00,
2013-09-12 22:26:00,79.0,72.7,29.89,SE,129,0.0,0.0,81,0.00,,OVC,0.00,WeatherDisplay:10.37,2013-09-13 02:26:00,
2013-09-12 22:31:00,78.8,72.5,29.89,SE,129,0.0,0.0,81,0.00,,OVC,0.00,WeatherDisplay:10.37,2013-09-13 02:31:00,
2013-09-12 22:36:00,78.8,72.5,29.89,SE,129,0.0,0.0,81,0.00,,OVC,0.00,WeatherDisplay:10.37,2013-09-13 02:36:00,
2013-09-12 22:41:00,78.6,72.6,29.89,SE,129,0.0,0.0,82,0.00,,OVC,0.00,WeatherDisplay:10.37,2013-09-13 02:41:00,
2013-09-12 22:46:00,78.5,72.5,29.89,SE,129,0.0,0.0,82,0.00,,OVC,0.00,WeatherDisplay:10.37,2013-09-13 02:46:00,
2013-09-12 22:51:00,78.5,72.9,29.89,SE,129,0.0,0.0,83,0.00,,OVC,0.00,WeatherDisplay:10.37,2013-09-13 02:51:00,
2013-09-12 22:56:00,78.3,73.1,29.89,SE,129,0.0,0.0,84,0.00,,OVC,0.00,WeatherDisplay:10.37,2013-09-13 02:56:00,
2013-09-12 23:01:00,78.3,73.1,29.88,SE,129,0.0,0.0,84,0.00,,OVC,0.00,WeatherDisplay:10.37,2013-09-13 03:01:00,
2013-09-12 23:06:00,78.3,73.4,29.88,SE,129,0.0,0.0,85,0.00,,OVC,0.00,WeatherDisplay:10.37,2013-09-13 03:06:00,
2013-09-12 23:11:00,78.3,73.8,29.88,SE,129,0.0,0.0,86,0.00,,OVC,0.00,WeatherDisplay:10.37,2013-09-13 03:11:00,
2013-09-12 23:16:00,78.3,74.1,29.87,SE,129,0.0,0.0,87,0.00,,OVC,0.00,WeatherDisplay:10.37,2013-09-13 03:16:00,
2013-09-12 23:21:00,78.1,73.9,29.87,SE,129,0.0,0.0,87,0.00,,OVC,0.00,WeatherDisplay:10.37,2013-09-13 03:21:00,
2013-09-12 23:26:00,78.1,74.3,29.87,SE,129,0.0,0.0,88,0.00,,OVC,0.00,WeatherDisplay:10.37,2013-09-13 03:26:00,
2013-09-12 23:31:00,77.9,74.1,29.87,SE,129,0.0,0.0,88,0.00,,OVC,0.00,WeatherDisplay:10.37,2013-09-13 03:31:00,
2013-09-12 23:36:00,77.9,74.4,29.87,SE,129,0.0,0.0,89,0.00,,OVC,0.00,WeatherDisplay:10.37,2013-09-13 03:36:00,
2013-09-12 23:41:00,77.9,74.4,29.87,SE,129,0.0,0.0,89,0.00,,OVC,0.00,WeatherDisplay:10.37,2013-09-13 03:41:00,
2013-09-12 23:46:00,77.7,74.2,29.87,SE,129,0.0,0.0,89,0.00,,OVC,0.00,WeatherDisplay:10.37,2013-09-13 03:46:00,
2013-09-12 23:51:00,77.7,74.5,29.87,SE,129,0.0,0.0,90,0.00,,OVC,0.00,WeatherDisplay:10.37,2013-09-13 03:51:00,
2013-09-12 23:56:00,77.9,74.7,29.87,SE,129,0.0,0.0,90,0.00,,OVC,0.00,WeatherDisplay:10.37,2013-09-13 03:56:00,